Location: Peebles
(55.6412°N, 3.1714°W)
Time: 01:41:55
(UTC+01:00)

NAPA-1 - Pass Details

Date: 10 July 2022
Orbit: 525 x 528 km, 97.4° (Epoch: 14 August)

Event Time Altitude Azimuth Distance (km) Brightness Sun altitude
Exits shadow 22:48:23 - 171° (S) 2,176 ? -6.0°
Reaches altitude 10° 22:49:21 10° 173° (S) 1,770 ? -6.0°
Maximum altitude 22:53:09 69° 257° (WSW) 569 ? -6.3°
Drops below altitude 10° 22:57:00 10° 342° (NNW) 1,783 ? -6.6°
Sets 22:59:07 0° 345° (NNW) 2,677 ? -6.8°
